Tracking 25703 objects as of 3-Jul-2022
HD Live streaming from Space Station
objects crossing your sky now

AMOS 2

Track AMOS 2 now!
AMOS 2 is classified as:


NORAD ID: 28132
Int'l Code: 2003-059A
Perigee: 36,015.7 km
Apogee: 36,068.1 km
Inclination: 4.9 °
Period: 1,448.8 minutes
Semi major axis: 42412 km
RCS: 36.2156 m2 (large)
Launch date: December 27, 2003
Source: Israel (ISRA)
Launch site: TYURATAM MISSILE AND SPACE COMPLEX (TTMTR)

Ku-band communications, Europe, Middle East, East Coast of USA.
aabbcc
Your satellite tracking list
Your tracking list is empty




NASA's NSSDC Master Catalog

Two Line Element Set (TLE):
1 28132U 03059A   22183.17757992  .00000033  00000-0  00000+0 0  9991
2 28132   4.9469  77.8156 0006183  27.9514 317.0993  0.99393123 67723
Source of the keplerian elements: AFSPC